owner,sensor,date,latitude,longitude,vertical_datum,sea_water_temperature,qcFlag
BP,ioos:station:wmo:42369:1,2020-05-01T00:00:00Z,27.2096,-90.2887,2.0,26.9,11111222
BP,ioos:station:wmo:42369:1,2020-05-01T01:00:00Z,27.2096,-90.2887,2.0,26.8,11111222
BP,ioos:station:wmo:42369:1,2020-05-01T02:00:00Z,27.2096,-90.2887,2.0,26.8,11111222
BP,ioos:station:wmo:42369:1,2020-05-01T03:00:00Z,27.2096,-90.2887,2.0,26.8,11111222
BP,ioos:station:wmo:42369:1,2020-05-01T04:00:00Z,27.2096,-90.2887,2.0,26.8,11111222
BP,ioos:station:wmo:42369:1,2020-05-01T05:00:00Z,27.2096,-90.2887,2.0,26.8,11111222
BP,ioos:station:wmo:42369:1,2020-05-01T06:00:00Z,27.2096,-90.2887,2.0,26.8,11111222
BP,ioos:station:wmo:42369:1,2020-05-01T07:00:00Z,27.2096,-90.2887,2.0,26.8,11111222
BP,ioos:station:wmo:42369:1,2020-05-01T08:00:00Z,27.2096,-90.2887,2.0,26.8,11111222
BP,ioos:station:wmo:42369:1,2020-05-01T09:00:00Z,27.2096,-90.2887,2.0,26.8,11111222
BP,ioos:station:wmo:42369:1,2020-05-01T10:00:00Z,27.2096,-90.2887,2.0,26.8,11111222
BP,ioos:station:wmo:42369:1,2020-05-01T11:00:00Z,27.2096,-90.2887,2.0,26.8,11111222
BP,ioos:station:wmo:42369:1,2020-05-01T12:00:00Z,27.2096,-90.2887,2.0,26.8,11111222
BP,ioos:station:wmo:42369:1,2020-05-01T13:00:00Z,27.2096,-90.2887,2.0,26.8,11111222
BP,ioos:station:wmo:42369:1,2020-05-01T14:00:00Z,27.2096,-90.2887,2.0,26.8,11111222
BP,ioos:station:wmo:42369:1,2020-05-01T15:00:00Z,27.2096,-90.2887,2.0,26.8,11111222
BP,ioos:station:wmo:42369:1,2020-05-01T16:00:00Z,27.2096,-90.2887,2.0,26.8,11111222
BP,ioos:station:wmo:42369:1,2020-05-01T17:00:00Z,27.2096,-90.2887,2.0,26.9,11111222
BP,ioos:station:wmo:42369:1,2020-05-01T18:00:00Z,27.2096,-90.2887,2.0,27.0,11111222
BP,ioos:station:wmo:42369:1,2020-05-01T19:00:00Z,27.2096,-90.2887,2.0,27.2,11111222
BP,ioos:station:wmo:42369:1,2020-05-01T20:00:00Z,27.2096,-90.2887,2.0,27.4,11111222
BP,ioos:station:wmo:42369:1,2020-05-01T21:00:00Z,27.2096,-90.2887,2.0,27.4,11111222
BP,ioos:station:wmo:42369:1,2020-05-01T22:00:00Z,27.2096,-90.2887,2.0,27.4,11111222
BP,ioos:station:wmo:42369:1,2020-05-01T23:00:00Z,27.2096,-90.2887,2.0,27.4,11111222
BP,ioos:station:wmo:42369:1,2020-05-01T23:40:00Z,27.2096,-90.2887,2.0,27.2,11111222
BP,ioos:station:wmo:42369:1,2020-05-02T01:12:00Z,27.2096,-90.2887,2.0,27.0,11111222
BP,ioos:station:wmo:42369:1,2020-05-02T02:12:00Z,27.2096,-90.2887,2.0,26.9,11111222
BP,ioos:station:wmo:42369:1,2020-05-02T03:12:00Z,27.2096,-90.2887,2.0,26.9,11111222
BP,ioos:station:wmo:42369:1,2020-05-02T04:12:00Z,27.2096,-90.2887,2.0,26.9,11111222
BP,ioos:station:wmo:42369:1,2020-05-02T05:12:00Z,27.2096,-90.2887,2.0,26.9,11111222
BP,ioos:station:wmo:42369:1,2020-05-02T06:12:00Z,27.2096,-90.2887,2.0,26.8,11111222
BP,ioos:station:wmo:42369:1,2020-05-02T07:12:00Z,27.2096,-90.2887,2.0,26.8,11111222
BP,ioos:station:wmo:42369:1,2020-05-02T08:12:00Z,27.2096,-90.2887,2.0,26.8,11111222
BP,ioos:station:wmo:42369:1,2020-05-02T09:12:00Z,27.2096,-90.2887,2.0,26.8,11111222
BP,ioos:station:wmo:42369:1,2020-05-02T10:12:00Z,27.2096,-90.2887,2.0,26.8,11111222
BP,ioos:station:wmo:42369:1,2020-05-02T11:12:00Z,27.2096,-90.2887,2.0,26.8,11111222
BP,ioos:station:wmo:42369:1,2020-05-02T12:12:00Z,27.2096,-90.2887,2.0,26.7,11111222
BP,ioos:station:wmo:42369:1,2020-05-02T13:12:00Z,27.2096,-90.2887,2.0,26.7,11111222
BP,ioos:station:wmo:42369:1,2020-05-02T14:12:00Z,27.2096,-90.2887,2.0,26.7,11111222
BP,ioos:station:wmo:42369:1,2020-05-02T15:12:00Z,27.2096,-90.2887,2.0,26.8,11111222
BP,ioos:station:wmo:42369:1,2020-05-02T16:12:00Z,27.2096,-90.2887,2.0,26.8,11111222
BP,ioos:station:wmo:42369:1,2020-05-02T17:12:00Z,27.2096,-90.2887,2.0,26.9,11111222
BP,ioos:station:wmo:42369:1,2020-05-02T18:12:00Z,27.2096,-90.2887,2.0,26.9,11111222
BP,ioos:station:wmo:42369:1,2020-05-02T19:12:00Z,27.2096,-90.2887,2.0,27.0,11111222
BP,ioos:station:wmo:42369:1,2020-05-02T20:12:00Z,27.2096,-90.2887,2.0,27.1,11111222
BP,ioos:station:wmo:42369:1,2020-05-02T21:12:00Z,27.2096,-90.2887,2.0,27.1,11111222
BP,ioos:station:wmo:42369:1,2020-05-02T22:12:00Z,27.2096,-90.2887,2.0,27.0,11111222
BP,ioos:station:wmo:42369:1,2020-05-02T23:12:00Z,27.2096,-90.2887,2.0,27.0,11111222
BP,ioos:station:wmo:42369:1,2020-05-02T23:59:00Z,27.2096,-90.2887,2.0,27.0,11111222
BP,ioos:station:wmo:42369:1,2020-05-03T00:59:00Z,27.2096,-90.2887,2.0,27.0,11111222
BP,ioos:station:wmo:42369:1,2020-05-03T01:59:00Z,27.2096,-90.2887,2.0,26.9,11111222
BP,ioos:station:wmo:42369:1,2020-05-03T02:59:00Z,27.2096,-90.2887,2.0,26.9,11111222
BP,ioos:station:wmo:42369:1,2020-05-03T03:59:00Z,27.2096,-90.2887,2.0,26.9,11111222
BP,ioos:station:wmo:42369:1,2020-05-03T04:59:00Z,27.2096,-90.2887,2.0,26.9,11111222
BP,ioos:station:wmo:42369:1,2020-05-03T05:59:00Z,27.2096,-90.2887,2.0,26.9,11111222
BP,ioos:station:wmo:42369:1,2020-05-03T06:59:00Z,27.2096,-90.2887,2.0,26.8,11111222
BP,ioos:station:wmo:42369:1,2020-05-03T07:59:00Z,27.2096,-90.2887,2.0,26.8,11111222
BP,ioos:station:wmo:42369:1,2020-05-03T08:59:00Z,27.2096,-90.2887,2.0,26.8,11111222
BP,ioos:station:wmo:42369:1,2020-05-03T09:59:00Z,27.2096,-90.2887,2.0,26.8,11111222
BP,ioos:station:wmo:42369:1,2020-05-03T10:59:00Z,27.2096,-90.2887,2.0,26.8,11111222
BP,ioos:station:wmo:42369:1,2020-05-03T11:59:00Z,27.2096,-90.2887,2.0,26.8,11111222
BP,ioos:station:wmo:42369:1,2020-05-03T12:59:00Z,27.2096,-90.2887,2.0,26.8,11111222
BP,ioos:station:wmo:42369:1,2020-05-03T13:59:00Z,27.2096,-90.2887,2.0,26.8,11111222
BP,ioos:station:wmo:42369:1,2020-05-03T14:59:00Z,27.2096,-90.2887,2.0,26.8,11111222
BP,ioos:station:wmo:42369:1,2020-05-03T15:59:00Z,27.2096,-90.2887,2.0,26.8,11111222
BP,ioos:station:wmo:42369:1,2020-05-03T16:59:00Z,27.2096,-90.2887,2.0,26.9,11111222
BP,ioos:station:wmo:42369:1,2020-05-03T17:59:00Z,27.2096,-90.2887,2.0,27.0,11111222
BP,ioos:station:wmo:42369:1,2020-05-03T18:59:00Z,27.2096,-90.2887,2.0,27.1,11111222
BP,ioos:station:wmo:42369:1,2020-05-03T19:59:00Z,27.2096,-90.2887,2.0,27.3,11111222
BP,ioos:station:wmo:42369:1,2020-05-03T20:59:00Z,27.2096,-90.2887,2.0,27.3,11111222
BP,ioos:station:wmo:42369:1,2020-05-03T21:59:00Z,27.2096,-90.2887,2.0,27.3,11111222
BP,ioos:station:wmo:42369:1,2020-05-03T22:59:00Z,27.2096,-90.2887,2.0,27.2,11111222
BP,ioos:station:wmo:42369:1,2020-05-03T23:59:00Z,27.2096,-90.2887,2.0,27.1,11111222
BP,ioos:station:wmo:42369:1,2020-05-04T00:59:00Z,27.2096,-90.2887,2.0,27.1,11111222
BP,ioos:station:wmo:42369:1,2020-05-04T01:59:00Z,27.2096,-90.2887,2.0,27.0,11111222
BP,ioos:station:wmo:42369:1,2020-05-04T02:59:00Z,27.2096,-90.2887,2.0,27.0,11111222
BP,ioos:station:wmo:42369:1,2020-05-04T03:59:00Z,27.2096,-90.2887,2.0,26.9,11111222
BP,ioos:station:wmo:42369:1,2020-05-04T04:59:00Z,27.2096,-90.2887,2.0,26.9,11111222
BP,ioos:station:wmo:42369:1,2020-05-04T05:59:00Z,27.2096,-90.2887,2.0,26.9,11111222
BP,ioos:station:wmo:42369:1,2020-05-04T06:59:00Z,27.2096,-90.2887,2.0,26.8,11111222
BP,ioos:station:wmo:42369:1,2020-05-04T07:59:00Z,27.2096,-90.2887,2.0,26.8,11111222
BP,ioos:station:wmo:42369:1,2020-05-04T08:59:00Z,27.2096,-90.2887,2.0,26.8,11111222
BP,ioos:station:wmo:42369:1,2020-05-04T09:59:00Z,27.2096,-90.2887,2.0,26.8,11111222
BP,ioos:station:wmo:42369:1,2020-05-04T10:59:00Z,27.2096,-90.2887,2.0,26.8,11111222
BP,ioos:station:wmo:42369:1,2020-05-04T11:59:00Z,27.2096,-90.2887,2.0,26.8,11111222
BP,ioos:station:wmo:42369:1,2020-05-04T12:59:00Z,27.2096,-90.2887,2.0,26.8,11111222
BP,ioos:station:wmo:42369:1,2020-05-04T13:59:00Z,27.2096,-90.2887,2.0,26.8,11111222
BP,ioos:station:wmo:42369:1,2020-05-04T14:59:00Z,27.2096,-90.2887,2.0,26.9,11111222
BP,ioos:station:wmo:42369:1,2020-05-04T15:59:00Z,27.2096,-90.2887,2.0,27.0,11111222
BP,ioos:station:wmo:42369:1,2020-05-04T16:59:00Z,27.2096,-90.2887,2.0,27.2,11111222
BP,ioos:station:wmo:42369:1,2020-05-04T17:59:00Z,27.2096,-90.2887,2.0,27.3,11111222
BP,ioos:station:wmo:42369:1,2020-05-04T18:59:00Z,27.2096,-90.2887,2.0,27.5,11111222
BP,ioos:station:wmo:42369:1,2020-05-04T19:59:00Z,27.2096,-90.2887,2.0,27.6,11111222
BP,ioos:station:wmo:42369:1,2020-05-04T20:59:00Z,27.2096,-90.2887,2.0,27.8,11111222
BP,ioos:station:wmo:42369:1,2020-05-04T21:59:00Z,27.2096,-90.2887,2.0,27.9,11111222
BP,ioos:station:wmo:42369:1,2020-05-04T22:59:00Z,27.2096,-90.2887,2.0,27.9,11111222
BP,ioos:station:wmo:42369:1,2020-05-04T23:59:00Z,27.2096,-90.2887,2.0,27.6,11111222
BP,ioos:station:wmo:42369:1,2020-05-05T00:59:00Z,27.2096,-90.2887,2.0,27.5,11111222
BP,ioos:station:wmo:42369:1,2020-05-05T01:59:00Z,27.2096,-90.2887,2.0,27.4,11111222
BP,ioos:station:wmo:42369:1,2020-05-05T02:59:00Z,27.2096,-90.2887,2.0,27.4,11111222
BP,ioos:station:wmo:42369:1,2020-05-05T03:59:00Z,27.2096,-90.2887,2.0,27.2,11111222
BP,ioos:station:wmo:42369:1,2020-05-05T04:59:00Z,27.2096,-90.2887,2.0,27.1,11111222
BP,ioos:station:wmo:42369:1,2020-05-05T05:59:00Z,27.2096,-90.2887,2.0,27.1,11111222
BP,ioos:station:wmo:42369:1,2020-05-05T06:59:00Z,27.2096,-90.2887,2.0,27.1,11111222
BP,ioos:station:wmo:42369:1,2020-05-05T07:59:00Z,27.2096,-90.2887,2.0,27.0,11111222
BP,ioos:station:wmo:42369:1,2020-05-05T08:59:00Z,27.2096,-90.2887,2.0,27.0,11111222
BP,ioos:station:wmo:42369:1,2020-05-05T09:59:00Z,27.2096,-90.2887,2.0,27.0,11111222
BP,ioos:station:wmo:42369:1,2020-05-05T10:39:00Z,27.2096,-90.2887,2.0,27.0,11111222
BP,ioos:station:wmo:42369:1,2020-05-05T10:59:00Z,27.2096,-90.2887,2.0,27.0,11111222
BP,ioos:station:wmo:42369:1,2020-05-05T13:00:00Z,27.2096,-90.2887,2.0,27.0,11111222
BP,ioos:station:wmo:42369:1,2020-05-05T14:00:00Z,27.2096,-90.2887,2.0,27.0,11111222
BP,ioos:station:wmo:42369:1,2020-05-05T15:00:00Z,27.2096,-90.2887,2.0,27.1,11111222
BP,ioos:station:wmo:42369:1,2020-05-05T16:00:00Z,27.2096,-90.2887,2.0,27.2,11111222
BP,ioos:station:wmo:42369:1,2020-05-05T17:00:00Z,27.2096,-90.2887,2.0,27.3,11111222
BP,ioos:station:wmo:42369:1,2020-05-05T18:00:00Z,27.2096,-90.2887,2.0,27.5,11111222
BP,ioos:station:wmo:42369:1,2020-05-05T19:00:00Z,27.2096,-90.2887,2.0,27.5,11111222
BP,ioos:station:wmo:42369:1,2020-05-05T20:00:00Z,27.2096,-90.2887,2.0,27.6,11111222
BP,ioos:station:wmo:42369:1,2020-05-05T21:00:00Z,27.2096,-90.2887,2.0,27.7,11111222
BP,ioos:station:wmo:42369:1,2020-05-05T22:00:00Z,27.2096,-90.2887,2.0,27.9,11111222
BP,ioos:station:wmo:42369:1,2020-05-05T23:00:00Z,27.2096,-90.2887,2.0,28.0,11111222
BP,ioos:station:wmo:42369:1,2020-05-06T00:00:00Z,27.2096,-90.2887,2.0,27.9,11111222
BP,ioos:station:wmo:42369:1,2020-05-06T01:00:00Z,27.2096,-90.2887,2.0,27.8,11111222
BP,ioos:station:wmo:42369:1,2020-05-06T02:00:00Z,27.2096,-90.2887,2.0,27.7,11111222
BP,ioos:station:wmo:42369:1,2020-05-06T03:00:00Z,27.2096,-90.2887,2.0,27.4,11111222
BP,ioos:station:wmo:42369:1,2020-05-06T04:00:00Z,27.2096,-90.2887,2.0,27.3,11111222
BP,ioos:station:wmo:42369:1,2020-05-06T05:00:00Z,27.2096,-90.2887,2.0,27.3,11111222
BP,ioos:station:wmo:42369:1,2020-05-06T06:00:00Z,27.2096,-90.2887,2.0,27.2,11111222
BP,ioos:station:wmo:42369:1,2020-05-06T07:00:00Z,27.2096,-90.2887,2.0,27.2,11111222
BP,ioos:station:wmo:42369:1,2020-05-06T08:00:00Z,27.2096,-90.2887,2.0,27.2,11111222
BP,ioos:station:wmo:42369:1,2020-05-06T09:00:00Z,27.2096,-90.2887,2.0,27.2,11111222
BP,ioos:station:wmo:42369:1,2020-05-06T10:00:00Z,27.2096,-90.2887,2.0,27.2,11111222
BP,ioos:station:wmo:42369:1,2020-05-06T11:00:00Z,27.2096,-90.2887,2.0,27.2,11111222
BP,ioos:station:wmo:42369:1,2020-05-06T12:00:00Z,27.2096,-90.2887,2.0,27.2,11111222
BP,ioos:station:wmo:42369:1,2020-05-06T13:00:00Z,27.2096,-90.2887,2.0,27.2,11111222
BP,ioos:station:wmo:42369:1,2020-05-06T14:00:00Z,27.2096,-90.2887,2.0,27.2,11111222
BP,ioos:station:wmo:42369:1,2020-05-06T15:00:00Z,27.2096,-90.2887,2.0,27.2,11111222
BP,ioos:station:wmo:42369:1,2020-05-06T16:00:00Z,27.2096,-90.2887,2.0,27.2,11111222
BP,ioos:station:wmo:42369:1,2020-05-06T17:00:00Z,27.2096,-90.2887,2.0,27.2,11111222
BP,ioos:station:wmo:42369:1,2020-05-06T18:00:00Z,27.2096,-90.2887,2.0,27.2,11111222
BP,ioos:station:wmo:42369:1,2020-05-06T19:00:00Z,27.2096,-90.2887,2.0,27.2,11111222
BP,ioos:station:wmo:42369:1,2020-05-06T20:00:00Z,27.2096,-90.2887,2.0,27.2,11111222
BP,ioos:station:wmo:42369:1,2020-05-06T21:00:00Z,27.2096,-90.2887,2.0,27.2,11111222
BP,ioos:station:wmo:42369:1,2020-05-06T22:00:00Z,27.2096,-90.2887,2.0,27.2,11111222
BP,ioos:station:wmo:42369:1,2020-05-06T23:00:00Z,27.2096,-90.2887,2.0,27.2,11111222
BP,ioos:station:wmo:42369:1,2020-05-07T00:00:00Z,27.2096,-90.2887,2.0,27.1,11111222
BP,ioos:station:wmo:42369:1,2020-05-07T01:00:00Z,27.2096,-90.2887,2.0,27.1,11111222
BP,ioos:station:wmo:42369:1,2020-05-07T02:00:00Z,27.2096,-90.2887,2.0,27.1,11111222
BP,ioos:station:wmo:42369:1,2020-05-07T03:00:00Z,27.2096,-90.2887,2.0,27.1,11111222
BP,ioos:station:wmo:42369:1,2020-05-07T04:00:00Z,27.2096,-90.2887,2.0,27.1,11111222
BP,ioos:station:wmo:42369:1,2020-05-07T05:00:00Z,27.2096,-90.2887,2.0,27.1,11111222
BP,ioos:station:wmo:42369:1,2020-05-07T06:00:00Z,27.2096,-90.2887,2.0,27.1,11111222
BP,ioos:station:wmo:42369:1,2020-05-07T07:00:00Z,27.2096,-90.2887,2.0,27.1,11111222
BP,ioos:station:wmo:42369:1,2020-05-07T08:00:00Z,27.2096,-90.2887,2.0,27.0,11111222
BP,ioos:station:wmo:42369:1,2020-05-07T09:00:00Z,27.2096,-90.2887,2.0,27.0,11111222
BP,ioos:station:wmo:42369:1,2020-05-07T10:00:00Z,27.2096,-90.2887,2.0,27.0,11111222
BP,ioos:station:wmo:42369:1,2020-05-07T11:00:00Z,27.2096,-90.2887,2.0,27.0,11111222
BP,ioos:station:wmo:42369:1,2020-05-07T12:00:00Z,27.2096,-90.2887,2.0,27.0,11111222
BP,ioos:station:wmo:42369:1,2020-05-07T13:00:00Z,27.2096,-90.2887,2.0,27.0,11111222
BP,ioos:station:wmo:42369:1,2020-05-07T14:00:00Z,27.2096,-90.2887,2.0,27.0,11111222
BP,ioos:station:wmo:42369:1,2020-05-07T15:00:00Z,27.2096,-90.2887,2.0,27.0,11111222
BP,ioos:station:wmo:42369:1,2020-05-07T16:00:00Z,27.2096,-90.2887,2.0,27.0,11111222
BP,ioos:station:wmo:42369:1,2020-05-07T17:00:00Z,27.2096,-90.2887,2.0,27.0,11111222
BP,ioos:station:wmo:42369:1,2020-05-07T18:00:00Z,27.2096,-90.2887,2.0,27.0,11111222
BP,ioos:station:wmo:42369:1,2020-05-07T19:00:00Z,27.2096,-90.2887,2.0,27.0,11111222
BP,ioos:station:wmo:42369:1,2020-05-07T20:00:00Z,27.2096,-90.2887,2.0,27.1,11111222
BP,ioos:station:wmo:42369:1,2020-05-07T21:00:00Z,27.2096,-90.2887,2.0,27.1,11111222
BP,ioos:station:wmo:42369:1,2020-05-07T22:00:00Z,27.2096,-90.2887,2.0,27.0,11111222
BP,ioos:station:wmo:42369:1,2020-05-07T23:00:00Z,27.2096,-90.2887,2.0,27.0,11111222
BP,ioos:station:wmo:42369:1,2020-05-08T00:00:00Z,27.2096,-90.2887,2.0,27.0,11111222
BP,ioos:station:wmo:42369:1,2020-05-08T01:00:00Z,27.2096,-90.2887,2.0,27.0,11111222
BP,ioos:station:wmo:42369:1,2020-05-08T02:00:00Z,27.2096,-90.2887,2.0,26.9,11111222
BP,ioos:station:wmo:42369:1,2020-05-08T03:00:00Z,27.2096,-90.2887,2.0,26.9,11111222
BP,ioos:station:wmo:42369:1,2020-05-08T04:00:00Z,27.2096,-90.2887,2.0,26.9,11111222
BP,ioos:station:wmo:42369:1,2020-05-08T05:00:00Z,27.2096,-90.2887,2.0,26.9,11111222
BP,ioos:station:wmo:42369:1,2020-05-08T06:00:00Z,27.2096,-90.2887,2.0,26.9,11111222
BP,ioos:station:wmo:42369:1,2020-05-08T07:00:00Z,27.2096,-90.2887,2.0,26.9,11111222
BP,ioos:station:wmo:42369:1,2020-05-08T08:00:00Z,27.2096,-90.2887,2.0,26.9,11111222
BP,ioos:station:wmo:42369:1,2020-05-08T09:00:00Z,27.2096,-90.2887,2.0,26.9,11111222
BP,ioos:station:wmo:42369:1,2020-05-08T10:00:00Z,27.2096,-90.2887,2.0,26.9,11111222
BP,ioos:station:wmo:42369:1,2020-05-08T11:00:00Z,27.2096,-90.2887,2.0,26.9,11111222
BP,ioos:station:wmo:42369:1,2020-05-08T12:00:00Z,27.2096,-90.2887,2.0,26.9,11111222
BP,ioos:station:wmo:42369:1,2020-05-08T13:00:00Z,27.2096,-90.2887,2.0,26.9,11111222
BP,ioos:station:wmo:42369:1,2020-05-08T14:00:00Z,27.2096,-90.2887,2.0,26.8,11111222
BP,ioos:station:wmo:42369:1,2020-05-08T15:00:00Z,27.2096,-90.2887,2.0,26.9,11111222
BP,ioos:station:wmo:42369:1,2020-05-08T16:00:00Z,27.2096,-90.2887,2.0,26.9,11111222
BP,ioos:station:wmo:42369:1,2020-05-08T17:00:00Z,27.2096,-90.2887,2.0,26.9,11111222
BP,ioos:station:wmo:42369:1,2020-05-08T18:00:00Z,27.2096,-90.2887,2.0,26.9,11111222
BP,ioos:station:wmo:42369:1,2020-05-08T19:00:00Z,27.2096,-90.2887,2.0,26.9,11111222
BP,ioos:station:wmo:42369:1,2020-05-08T20:00:00Z,27.2096,-90.2887,2.0,27.0,11111222
BP,ioos:station:wmo:42369:1,2020-05-08T21:00:00Z,27.2096,-90.2887,2.0,27.2,11111222
BP,ioos:station:wmo:42369:1,2020-05-08T22:00:00Z,27.2096,-90.2887,2.0,27.2,11111222
BP,ioos:station:wmo:42369:1,2020-05-08T23:00:00Z,27.2096,-90.2887,2.0,27.2,11111222
BP,ioos:station:wmo:42369:1,2020-05-09T00:00:00Z,27.2096,-90.2887,2.0,27.1,11111222
BP,ioos:station:wmo:42369:1,2020-05-09T01:00:00Z,27.2096,-90.2887,2.0,27.1,11111222
BP,ioos:station:wmo:42369:1,2020-05-09T02:00:00Z,27.2096,-90.2887,2.0,27.0,11111222
BP,ioos:station:wmo:42369:1,2020-05-09T03:00:00Z,27.2096,-90.2887,2.0,27.0,11111222
BP,ioos:station:wmo:42369:1,2020-05-09T04:00:00Z,27.2096,-90.2887,2.0,26.9,11111222
BP,ioos:station:wmo:42369:1,2020-05-09T05:00:00Z,27.2096,-90.2887,2.0,26.9,11111222
BP,ioos:station:wmo:42369:1,2020-05-09T06:00:00Z,27.2096,-90.2887,2.0,26.9,11111222
BP,ioos:station:wmo:42369:1,2020-05-09T07:00:00Z,27.2096,-90.2887,2.0,26.9,11111222
BP,ioos:station:wmo:42369:1,2020-05-09T08:00:00Z,27.2096,-90.2887,2.0,26.9,11111222
BP,ioos:station:wmo:42369:1,2020-05-09T09:00:00Z,27.2096,-90.2887,2.0,26.9,11111222
BP,ioos:station:wmo:42369:1,2020-05-09T10:00:00Z,27.2096,-90.2887,2.0,26.9,11111222
BP,ioos:station:wmo:42369:1,2020-05-09T11:00:00Z,27.2096,-90.2887,2.0,26.8,11111222
BP,ioos:station:wmo:42369:1,2020-05-09T12:00:00Z,27.2096,-90.2887,2.0,26.8,11111222
BP,ioos:station:wmo:42369:1,2020-05-09T13:00:00Z,27.2096,-90.2887,2.0,26.9,11111222
BP,ioos:station:wmo:42369:1,2020-05-09T14:00:00Z,27.2096,-90.2887,2.0,26.9,11111222
BP,ioos:station:wmo:42369:1,2020-05-09T15:00:00Z,27.2096,-90.2887,2.0,26.9,11111222
BP,ioos:station:wmo:42369:1,2020-05-09T16:00:00Z,27.2096,-90.2887,2.0,26.9,11111222
BP,ioos:station:wmo:42369:1,2020-05-09T17:00:00Z,27.2096,-90.2887,2.0,26.9,11111222
BP,ioos:station:wmo:42369:1,2020-05-09T18:00:00Z,27.2096,-90.2887,2.0,26.9,11111222
BP,ioos:station:wmo:42369:1,2020-05-09T19:00:00Z,27.2096,-90.2887,2.0,26.9,11111222
BP,ioos:station:wmo:42369:1,2020-05-09T20:00:00Z,27.2096,-90.2887,2.0,26.9,11111222
BP,ioos:station:wmo:42369:1,2020-05-09T21:00:00Z,27.2096,-90.2887,2.0,26.9,11111222
BP,ioos:station:wmo:42369:1,2020-05-09T22:00:00Z,27.2096,-90.2887,2.0,26.9,11111222
BP,ioos:station:wmo:42369:1,2020-05-09T23:00:00Z,27.2096,-90.2887,2.0,26.9,11111222
BP,ioos:station:wmo:42369:1,2020-05-09T23:59:00Z,27.2096,-90.2887,2.0,26.9,11111222
BP,ioos:station:wmo:42369:1,2020-05-10T00:59:00Z,27.2096,-90.2887,2.0,26.9,11111222
BP,ioos:station:wmo:42369:1,2020-05-10T01:59:00Z,27.2096,-90.2887,2.0,26.9,11111222
BP,ioos:station:wmo:42369:1,2020-05-10T02:59:00Z,27.2096,-90.2887,2.0,26.8,11111222
BP,ioos:station:wmo:42369:1,2020-05-10T03:59:00Z,27.2096,-90.2887,2.0,26.8,11111222
BP,ioos:station:wmo:42369:1,2020-05-10T05:19:00Z,27.2096,-90.2887,2.0,26.8,11111222
BP,ioos:station:wmo:42369:1,2020-05-10T05:59:00Z,27.2096,-90.2887,2.0,26.8,11111222
BP,ioos:station:wmo:42369:1,2020-05-10T06:59:00Z,27.2096,-90.2887,2.0,26.8,11111222
BP,ioos:station:wmo:42369:1,2020-05-10T07:59:00Z,27.2096,-90.2887,2.0,26.7,11111222
BP,ioos:station:wmo:42369:1,2020-05-10T08:59:00Z,27.2096,-90.2887,2.0,26.7,11111222
BP,ioos:station:wmo:42369:1,2020-05-10T09:59:00Z,27.2096,-90.2887,2.0,26.8,11111222
BP,ioos:station:wmo:42369:1,2020-05-10T10:59:00Z,27.2096,-90.2887,2.0,26.8,11111222
BP,ioos:station:wmo:42369:1,2020-05-10T11:59:00Z,27.2096,-90.2887,2.0,26.7,11111222
BP,ioos:station:wmo:42369:1,2020-05-10T12:59:00Z,27.2096,-90.2887,2.0,26.7,11111222
BP,ioos:station:wmo:42369:1,2020-05-10T13:59:00Z,27.2096,-90.2887,2.0,26.8,11111222
BP,ioos:station:wmo:42369:1,2020-05-10T14:59:00Z,27.2096,-90.2887,2.0,26.8,11111222
BP,ioos:station:wmo:42369:1,2020-05-10T15:59:00Z,27.2096,-90.2887,2.0,26.8,11111222
BP,ioos:station:wmo:42369:1,2020-05-10T16:59:00Z,27.2096,-90.2887,2.0,26.8,11111222
BP,ioos:station:wmo:42369:1,2020-05-10T17:59:00Z,27.2096,-90.2887,2.0,26.9,11111222
BP,ioos:station:wmo:42369:1,2020-05-10T18:59:00Z,27.2096,-90.2887,2.0,26.9,11111222
BP,ioos:station:wmo:42369:1,2020-05-10T19:59:00Z,27.2096,-90.2887,2.0,26.9,11111222
BP,ioos:station:wmo:42369:1,2020-05-10T20:59:00Z,27.2096,-90.2887,2.0,26.9,11111222
BP,ioos:station:wmo:42369:1,2020-05-10T21:59:00Z,27.2096,-90.2887,2.0,26.9,11111222
BP,ioos:station:wmo:42369:1,2020-05-10T22:59:00Z,27.2096,-90.2887,2.0,26.9,11111222
BP,ioos:station:wmo:42369:1,2020-05-10T23:59:00Z,27.2096,-90.2887,2.0,26.8,11111222
BP,ioos:station:wmo:42369:1,2020-05-11T00:59:00Z,27.2096,-90.2887,2.0,26.8,11111222
BP,ioos:station:wmo:42369:1,2020-05-11T01:59:00Z,27.2096,-90.2887,2.0,26.8,11111222
BP,ioos:station:wmo:42369:1,2020-05-11T02:59:00Z,27.2096,-90.2887,2.0,26.8,11111222
BP,ioos:station:wmo:42369:1,2020-05-11T03:59:00Z,27.2096,-90.2887,2.0,26.8,11111222
BP,ioos:station:wmo:42369:1,2020-05-11T04:59:00Z,27.2096,-90.2887,2.0,26.7,11111222
BP,ioos:station:wmo:42369:1,2020-05-11T05:59:00Z,27.2096,-90.2887,2.0,26.7,11111222
BP,ioos:station:wmo:42369:1,2020-05-11T06:59:00Z,27.2096,-90.2887,2.0,26.7,11111222
BP,ioos:station:wmo:42369:1,2020-05-11T07:59:00Z,27.2096,-90.2887,2.0,26.7,11111222
BP,ioos:station:wmo:42369:1,2020-05-11T08:59:00Z,27.2096,-90.2887,2.0,26.7,11111222
BP,ioos:station:wmo:42369:1,2020-05-11T09:59:00Z,27.2096,-90.2887,2.0,26.7,11111222
BP,ioos:station:wmo:42369:1,2020-05-11T10:59:00Z,27.2096,-90.2887,2.0,26.7,11111222
BP,ioos:station:wmo:42369:1,2020-05-11T11:59:00Z,27.2096,-90.2887,2.0,26.7,11111222
BP,ioos:station:wmo:42369:1,2020-05-11T12:59:00Z,27.2096,-90.2887,2.0,26.7,11111222
BP,ioos:station:wmo:42369:1,2020-05-11T13:59:00Z,27.2096,-90.2887,2.0,26.7,11111222
BP,ioos:station:wmo:42369:1,2020-05-11T14:59:00Z,27.2096,-90.2887,2.0,26.7,11111222
BP,ioos:station:wmo:42369:1,2020-05-11T15:59:00Z,27.2096,-90.2887,2.0,26.7,11111222
BP,ioos:station:wmo:42369:1,2020-05-11T16:59:00Z,27.2096,-90.2887,2.0,26.8,11111222
BP,ioos:station:wmo:42369:1,2020-05-11T17:59:00Z,27.2096,-90.2887,2.0,26.8,11111222
BP,ioos:station:wmo:42369:1,2020-05-11T18:59:00Z,27.2096,-90.2887,2.0,26.8,11111222
BP,ioos:station:wmo:42369:1,2020-05-11T19:59:00Z,27.2096,-90.2887,2.0,26.8,11111222
BP,ioos:station:wmo:42369:1,2020-05-11T20:59:00Z,27.2096,-90.2887,2.0,26.8,11111222
BP,ioos:station:wmo:42369:1,2020-05-11T21:59:00Z,27.2096,-90.2887,2.0,26.8,11111222
BP,ioos:station:wmo:42369:1,2020-05-11T22:59:00Z,27.2096,-90.2887,2.0,26.7,11111222
BP,ioos:station:wmo:42369:1,2020-05-11T23:59:00Z,27.2096,-90.2887,2.0,26.7,11111222
BP,ioos:station:wmo:42369:1,2020-05-12T00:59:00Z,27.2096,-90.2887,2.0,26.7,11111222
BP,ioos:station:wmo:42369:1,2020-05-12T01:59:00Z,27.2096,-90.2887,2.0,26.6,11111222
BP,ioos:station:wmo:42369:1,2020-05-12T02:59:00Z,27.2096,-90.2887,2.0,26.6,11111222
BP,ioos:station:wmo:42369:1,2020-05-12T03:59:00Z,27.2096,-90.2887,2.0,26.6,11111222
BP,ioos:station:wmo:42369:1,2020-05-12T04:59:00Z,27.2096,-90.2887,2.0,26.6,11111222
BP,ioos:station:wmo:42369:1,2020-05-12T05:59:00Z,27.2096,-90.2887,2.0,26.6,11111222
BP,ioos:station:wmo:42369:1,2020-05-12T06:59:00Z,27.2096,-90.2887,2.0,26.6,11111222
BP,ioos:station:wmo:42369:1,2020-05-12T07:59:00Z,27.2096,-90.2887,2.0,26.6,11111222
BP,ioos:station:wmo:42369:1,2020-05-12T08:59:00Z,27.2096,-90.2887,2.0,26.6,11111222
BP,ioos:station:wmo:42369:1,2020-05-12T09:59:00Z,27.2096,-90.2887,2.0,26.6,11111222
BP,ioos:station:wmo:42369:1,2020-05-12T10:59:00Z,27.2096,-90.2887,2.0,26.6,11111222
BP,ioos:station:wmo:42369:1,2020-05-12T11:59:00Z,27.2096,-90.2887,2.0,26.6,11111222
BP,ioos:station:wmo:42369:1,2020-05-12T12:59:00Z,27.2096,-90.2887,2.0,26.6,11111222
BP,ioos:station:wmo:42369:1,2020-05-12T13:59:00Z,27.2096,-90.2887,2.0,26.6,11111222
BP,ioos:station:wmo:42369:1,2020-05-12T14:59:00Z,27.2096,-90.2887,2.0,26.6,11111222
BP,ioos:station:wmo:42369:1,2020-05-12T15:59:00Z,27.2096,-90.2887,2.0,26.7,11111222